• MPC Preparation (Info)

  • MPEC 2023-N67 : 2023 NG1

    The following Minor Planet Electronic Circular may be linked-to from your own Web pages, but must not otherwise be redistributed electronically.

    A form allowing access to any MPEC is at the bottom of this page.


    Read MPEC 2023-N66 Read MPEC 2023-N68


    M.P.E.C. 2023-N67                                 Issued 2023 July 14, 11:07 UT
    
         The Minor Planet Electronic Circulars contain information on unusual
             minor planets, routine data on comets and natural satellites,
             and occasional editorial announcements.  They are published
        on behalf of Division F of the International Astronomical Union by the
              Minor Planet Center, Smithsonian Astrophysical Observatory,
                              Cambridge, MA 02138, U.S.A.
    			  
                 Prepared using the Tamkin Foundation Computer Network
    
                                  MPC@CFA.HARVARD.EDU
                URL https://www.minorplanetcenter.net/    ISSN 1523-6714
    
                                    2023 NG1                                 
    
    
    Observations:
         K23N01G*KC2023 07 12.93462 21 28 20.83 +27 26 06.2          19.9 GXEN067L51
         K23N01G KC2023 07 12.93591 21 28 20.25 +27 26 10.3          19.9 GXEN067L51
         K23N01G KC2023 07 12.93719 21 28 19.68 +27 26 14.4          19.8 GXEN067L51
         K23N01G KC2023 07 12.97922 21 28 00.20 +27 28 22.9          19.7 GXEN067L51
         K23N01G KC2023 07 12.98071 21 27 59.53 +27 28 27.3          19.6 GXEN067L51
         K23N01G KC2023 07 12.98222 21 27 58.82 +27 28 31.7          19.6 GXEN067L51
         K23N01G KB2023 07 13.37029 21 25 54.38 +27 46 46.9          19.6 rZEN067H36
         K23N01G KB2023 07 13.37553 21 25 51.99 +27 46 59.4          19.3 rZEN067H36
         K23N01G KB2023 07 13.38040 21 25 49.80 +27 47 11.3          19.0 rZEN067H36
         K23N01G KB2023 07 13.88874621 23 38.52 +28 06 40.2          19.2 GXEN067L76
         K23N01G KB2023 07 13.89618121 23 35.64 +28 07 00.2          19.3 GXEN067L76
         K23N01G KB2023 07 13.90361621 23 32.81 +28 07 19.7          19.3 GXEN067L76
         K23N01G KC2023 07 13.91077621 23 37.86 +28 07 16.1          20.2 GVEN067L01
         K23N01G KC2023 07 13.91246021 23 37.26 +28 07 20.7          20.1 GVEN067L01
         K23N01G KC2023 07 13.91414221 23 36.65 +28 07 25.3          19.9 GVEN067L01
         K23N01G KC2023 07 13.91612021 23 35.90 +28 07 30.9          20.0 GVEN067L01
         K23N01G KC2023 07 13.91710021 23 38.87 +28 07 12.6          19.5 GXEN067I93
         K23N01G KC2023 07 13.91809821 23 35.17 +28 07 36.7          19.7 GVEN067L01
         K23N01G KC2023 07 13.92146121 23 33.94 +28 07 46.4          20.3 GVEN067L01
         K23N01G KC2023 07 13.92401921 23 36.47 +28 07 33.1          19.7 GXEN067I93
         K23N01G 1C2023 07 13.92996 21 23 29.84 +28 07 34.4          20.3 VXEN067033
         K23N01G 1C2023 07 13.93053 21 23 29.64 +28 07 35.8          20.1 VXEN067033
         K23N01G KC2023 07 13.93076821 23 34.10 +28 07 53.2          19.8 GXEN067I93
         K23N01G 1C2023 07 13.93111 21 23 29.43 +28 07 37.7          20.1 VXEN067033
         K23N01G 1C2023 07 13.93181 21 23 29.18 +28 07 39.9          20.1 VXEN067033
         K23N01G KC2023 07 13.93996 21 23 20.52 +28 09 03.0          19.3 GXEN067L51
         K23N01G KC2023 07 13.94145 21 23 20.00 +28 09 06.7          19.6 GXEN067L51
         K23N01G KC2023 07 13.94295 21 23 19.40 +28 09 10.1          19.4 GXEN067L51
         K23N01G KB2023 07 13.97861121 23 12.473+28 09 50.36         19.7 GXEN067K74
         K23N01G  C2023 07 13.98196 21 23 13.54 +28 10 32.5                XEN067511
         K23N01G KC2023 07 13.98320 21 23 11.84 +28 10 31.9          19.6 GXEN067G15
         K23N01G  C2023 07 13.98546 21 23 12.25 +28 10 40.4                XEN067511
         K23N01G KC2023 07 13.98853 21 23 09.85 +28 10 47.3          18.7 GXEN067G15
         K23N01G  C2023 07 13.98912 21 23 10.79 +28 10 50.5                XEN067511
         K23N01G KB2023 07 13.99000721 23 08.117+28 10 20.39         20.0 GXEN067K74
         K23N01G KC2023 07 13.99141 21 23 09.91 +28 10 56.1          20.6 VZEN067C95
         K23N01G  C2023 07 13.99262 21 23 09.45 +28 10 59.7                XEN067511
         K23N01G KC2023 07 13.99386 21 23 07.70 +28 10 59.7          19.1 GXEN067G15
         K23N01G  C2023 07 13.99613 21 23 08.00 +28 11 09.0                XEN067511
         K23N01G  C2023 07 13.99995 21 23 06.49 +28 11 19.0                XEN067511
         K23N01G KB2023 07 14.00140021 23 03.720+28 10 48.76         19.8 GXEN067K74
         K23N01G  C2023 07 14.00346 21 23 05.15 +28 11 27.5                XEN067511
         K23N01G KB2023 07 14.01052821 23 00.889+28 11 04.35         19.7 GXEN067B72
         K23N01G KB2023 07 14.01279421 22 59.294+28 11 17.12         20.3 GXEN067K74
         K23N01G KC2023 07 14.01352 21 23 01.18 +28 11 52.9          20.5 VZEN067C95
         K23N01G KB2023 07 14.01770421 22 58.183+28 11 22.09         19.4 GXEN067B72
         K23N01G KB2023 07 14.02514921 22 55.290+28 11 39.89         19.7 GXEN067B72
         K23N01G KB2023 07 14.03259721 22 52.388+28 11 57.23         19.5 GXEN067B72
         K23N01G KC2023 07 14.03562 21 22 52.33 +28 12 46.6          20.0 VZEN067C95
         K23N01G KB2023 07 14.03977021 22 49.640+28 12 14.27         19.5 GXEN067B72
         K23N01G KB2023 07 14.04721521 22 46.776+28 12 31.39         19.5 GXEN067B72
         K23N01G KC2023 07 14.04753 21 22 46.36 +28 13 03.2          20   GVEN067204
         K23N01G HC2023 07 14.05484 21 22 43.47 +28 13 19.0                VEN067204
         K23N01G KC2023 07 14.20971021 22 16.94 +28 19 01.6          20.1 VuEN067H21
         K23N01G KC2023 07 14.21111021 22 16.43 +28 19 05.5          19.6 VuEN067H21
         K23N01G KC2023 07 14.21390721 22 15.38 +28 19 13.1          19.8 VuEN067H21
         K23N01G KC2023 07 14.21670321 22 14.34 +28 19 20.7          19.8 VuEN067H21
         K23N01G KC2023 07 14.21977921 22 13.20 +28 19 28.7          20.0 VuEN067H21
         K23N01G 1C2023 07 14.32376921 21 41.947+28 24 11.41         20.01GVEN067G96
         K23N01G 1C2023 07 14.32767021 21 40.396+28 24 20.45         20.00GVEN067G96
         K23N01G 1C2023 07 14.33156621 21 38.826+28 24 29.92         19.98GVEN067G96
         K23N01G 1C2023 07 14.33548421 21 37.256+28 24 39.60         20.00GVEN067G96
    
    Observer details:
    033 Karl Schwarzschild Observatory, Tautenburg.  Observers S. Melnikov, C.
        Hoegner, F. Ludwig, B. Stecklum.  Measurer B. Stecklum.  1.34-m f/3
        Schmidt + CCD.
    204 Schiaparelli Observatory.  Observer L. Buzzi.  0.84-m f/3.5 reflector +
        CCD.
    511 Haute Provence.  Observers W. Thuillot, M. Saillenfest.  Measurers M.
        Saillenfest, S. Bouquillon, F. Taris, T. Carlucci, C. Barache.  1.20-m f/6
        reflector + CCD.
    B72 Soerth.  Observer B. Koch.  0.36-m f/7.6 Schmidt-Cassegrain + CMO.
    C95 SATINO Remote Observatory, Haute Provence.  Observer D. Husar.  0.30-m
        f/5.8 reflector + CCD.
    G15 Magroforte Observatory, Alessandria.  Observer A. De Pieri.  0.23-m f/6.7
        SC + CCD.
    G96 Mt. Lemmon Survey.  Observer D. C. Fuls.  Measurers E. J. Christensen, D.
        Fay, J. B. Fazekas, D. C. Fuls, A. R. Gibbs, A. D. Grauer, H. Groeller, J.
        K. Hogan, R. A. Kowalski, S. M. Larson, G. J. Leonard, D. Rankin, R. L.
        Seaman, A. Serrano, F. C. Shelly, K. W. Wierzchos.  1.5-m reflector + 10K
        CCD.
    H21 Astronomical Research Observatory, Westfield.  Observer R. Holmes.
        Measurers T. Linder, R. Holmes, L. Horn.  0.76-m f/3.0 astrograph + CCD.
    H36 Sandlot Observatory, Scranton.  Observer G. Hug.  0.56-m f/4.2 reflector +
        CMO.
    I93 St Pardon de Conques.  Observer F. Losse.  0.40-m f/3.7 reflector + CMO.
    K74 Muensterschwarzach Observatory, Schwarzach.  Observer C. Gerhard.  0.30-m
        f/3.75 reflector + CMO.
    L01 Visnjan Observatory, Tican.  Observer K. Korlevic.  1.0-m f/2.9 reflector
        + CCD.
    L51 MARGO, Nauchnyi.  Observer G. Borisov.  0.50-m f/1.9 reflector + CCD.
    L76 Nomad Observatory, Kochevanchik.  Observer E. Romas.  0.25-m f/4 newtonian
        + CMO.
    
    Orbital elements:
    2023 NG1                                                 Earth MOID = 0.0011 AU
    Epoch 2023 Feb. 25.0 TT = JDT 2460000.5                 Veres                   
    M 279.50362              (2000.0)            P               Q                  
    n   0.79330471     Peri.  329.91299     -0.28700738     +0.95428020             
    a   1.1556936      Node   283.30043     -0.86088067     -0.29518902             
    e   0.1326299      Incl.    4.92346     -0.42013240     -0.04703979             
    P   1.24           H   26.14          G   0.15           U   8                  
    Residuals in seconds of arc
    230712 L51  0.4-  0.2+    230713 033  0.1+  0.2-    230714 B72  0.1-  0.1+
    230712 L51  0.2-  0.1+    230713 I93  0.2-  0.0     230714 K74  0.3-  0.3+
    230712 L51  0.0   0.1+    230713 033  0.2+  0.1+    230714 C95  0.1-  0.0
    230712 L51  0.4-  0.0     230713 033  0.2+  0.3+    230714 B72  0.5+  0.3+
    230712 L51  0.1-  0.0     230713 L51  0.3-  0.3-    230714 B72  0.1+  0.1+
    230712 L51  0.2-  0.0     230713 L51  0.7+  0.3-    230714 B72  0.2-  0.3-
    230713 H36  0.4+  0.3+    230713 L51  0.7+  0.7-    230714 C95  0.3-  0.3-
    230713 H36  0.1+  0.0     230713 K74  0.4+  0.5-    230714 B72  0.0   0.0
    230713 H36  0.1+  0.0     230713 511  1.0-  1.5+    230714 B72  0.2+  0.0
    230713 L76  0.6-  0.0     230713 G15  0.6-  0.9-    230714 204  0.5-  0.3+
    230713 L76  0.5-  0.0     230713 511  0.1-  0.0     230714 204  0.2-  0.4-
    230713 L76  0.6+  0.2-    230713 G15  0.7+  0.6+    230714 H21  0.0   0.2-
    230713 L01  0.2-  0.7+    230713 511  0.4-  0.4+    230714 H21  0.1+  0.1-
    230713 L01  0.0   0.4+    230713 K74  0.3+  0.2+    230714 H21  0.1-  0.1-
    230713 L01  0.1+  0.1+    230713 C95  0.3-  0.0     230714 H21  0.0   0.0
    230713 L01  0.3-  0.0     230713 511  0.1-  0.4+    230714 H21  0.1+  0.3-
    230713 I93  0.1+  0.3+    230713 G15  0.0   0.8-    230714 G96  0.1-  0.3+
    230713 L01  0.3-  0.1+    230713 511  1.0-  0.5+    230714 G96  0.1+  0.2-
    230713 L01  0.1-  0.2+    230713 511  1.0-  0.6+    230714 G96  0.0   0.1-
    230713 I93  0.0   0.0     230714 K74  0.0   0.0     230714 G96  0.1+  0.2+
    230713 033  0.1+  0.0     230714 511  0.4-  0.1+
    
    Ephemeris:
    2023 NG1                 a,e,i = 1.16, 0.13, 5                   q = 1.0024
    Date    TT    R. A. (2000) Decl.     Delta      r    Elong.  Phase     V
    2023 06 14    08 23 53.1 -35 05 34   0.04100 1.0036    71.8   106.0    23.1
    ...
    2023 06 29    06 48 31.6 -43 12 59   0.01072 1.0124    66.6   112.8    20.7
    ...
    2023 07 07    22 34 39.0 +14 47 47   0.0087571.0205   115.9    63.6    18.2
    ...
    2023 07 13    21 27 51.9 +27 31 25   0.02054 1.0278   122.5    56.5    19.8
    2023 07 14    21 22 58.3 +28 13 12   0.02258 1.0291   123.1    55.8    20.0
    2023 07 15    21 18 46.8 +28 46 23   0.02463 1.0304   123.7    55.2    20.2
    ...
    2023 07 21    21 02 15.2 +30 22 07   0.03702 1.0388   126.8    51.6    21.0
    ...
    2023 07 29    20 50 55.6 +30 21 40   0.05376 1.0511   130.5    47.3    21.7
    ...
    2023 08 13    20 41 47.2 +27 43 18   0.08626 1.0770   135.9    40.9    22.6
    
    M. P. C. Staff               (C) Copyright 2023 MPC           M.P.E.C. 2023-N67
    


    Read MPEC 2023-N66 Read MPEC 2023-N68


    MPEC number:

    Enter an MPEC number in one of the following forms:

    • 1997-B01 (the full form)
    • J97B01 (the packed version of the full form)
    • B01 (the abbreviated form)